SCP
0 0 0 0 0 0 0 0 0 0 0 0 0 0 0 0 0 0 0 0 0 0
0 0 0 0 0 0 0 0 0 0 0 0 0 0 0 0 0 0 0 0 0 0
0 0 0 0 0 0 0 0 0 0 0 0 0 0 0 0 0 0 0 0 0 0
0 0 0 0 0 0 0 0 0 0 0 0 0 0 0 0 0 0 0 0 0 0
0 0 0 0 0 0 0 0 0 0 0 0 0 0 0 0 0 0 0 0 0 0
0 0 0 0 0 0 0 0 0 0 0 0 0 0 0 0 0 0 0 0 0 0
0 0 0 0 0 0 0 0 0 0 0 0 0 0 0 0 0 0 0 0 0 0
0 0 0 0 0 0 0 0 0 0 0 0 0 0 0 0 0 0 0 0 0 0
0 0 0 0 0 0 0 0 0 0 0 0 0 0 0 0 0 0 0 0 0 0
0 0 0 0 0 0 0 0 0 0 0 0 0 0 0 0 0 0 0 0 0 0
0 0 0 0 0 0 0 0 0 0 0 0 0 0 0 0 0 0 0 0 0 0
0 0 0 0 0 0 0 0 0 0 0 0 0 0 0 0 0 0 0 0 0 0
0 0 0 0 0 0 0 0 0 0 0 0 0 0 0 0 0 0 0 0 0 0
0 0 0 0 0 0 0 0 0 0 0 0 0 0 0 0 0 0 0 0 0 0
Wind_Speed_500mb
83 91 95 93 88 82 77 68 66 88 80 74 69 64 68 68 73 72 71 70 71 68
56 71 89 90 89 83 67 57 60 59 83 78 75 77 75 75 83 78 70 63 46 37
78 80 71 82 86 80 66 54 57 62 66 78 82 84 80 67 52 43 47 34 27 15
86 89 72 70 74 66 68 64 62 63 70 80 80 57 30 33 21 25 23 30 25 27
73 76 83 82 70 58 62 77 67 77 88 63 30 28 19 24 22 24 28 33 20 15
48 68 79 73 71 73 71 45 20 49 54 30 25 25 17 26 27 34 30 25 20 13
32 43 56 66 69 73 71 45 34 38 39 26 30 25 30 26 45 38 30 25 25 22
25 33 41 52 59 65 55 52 71 61 62 51 56 47 54 48 50 37 35 31 25 20
23 24 36 38 52 59 69 80 81 75 73 74 64 62 48 41 41 39 32 27 22 15
22 26 30 35 41 52 65 74 75 74 70 64 56 48 46 37 35 31 25 23 19 18
19 23 29 34 41 50 60 49 49 58 54 55 61 41 42 31 30 27 26 27 25 19
13 19 25 29 35 41 45 50 51 55 59 44 51 36 28 29 34 30 25 23 20 17
19 25 30 39 51 57 56 58 51 46 39 36 34 33 30 29 27 29 27 25 18 14
38 48 57 62 63 63 60 54 45 36 34 33 34 37 33 27 22 19 18 16 11 6
Wind_Direction_500mb
242 241 242 245 248 249 248 252 249 235 235 238 240 247 246 243 244 244 245 247 248 247
254 250 249 250 250 251 249 256 247 243 232 235 239 241 245 244 248 241 238 233 209 184
260 261 268 257 253 249 247 250 248 241 235 236 238 239 241 234 205 191 181 170 172 197
243 244 255 261 261 248 248 247 241 236 235 235 230 209 170 177 192 178 201 209 218 233
230 240 239 246 243 250 251 247 242 240 232 203 155 139 163 198 209 210 219 215 193 204
236 225 232 238 236 243 251 237 281 200 150 135 121 156 132 192 216 216 209 203 181 176
255 241 232 229 239 240 231 230 241 188 216 217 260 227 202 204 200 191 176 169 167 168
248 243 247 235 224 209 219 215 206 203 198 208 199 210 201 189 184 171 166 167 169 174
267 249 233 232 227 215 200 196 198 203 200 193 188 182 176 165 157 153 162 166 161 152
261 251 243 233 221 213 199 192 190 188 184 175 160 142 141 155 151 148 153 147 144 140
253 247 237 227 214 200 199 190 175 173 155 144 130 137 137 160 151 144 151 152 138 135
228 226 217 209 200 188 174 153 146 138 139 147 132 138 150 175 148 142 149 136 126 119
182 186 175 169 155 147 146 141 137 135 132 132 137 148 153 164 145 142 148 135 144 140
146 149 145 141 137 132 127 123 120 132 140 142 144 148 148 153 129 133 152 153 144 126
Wind_Speed_850mb
83 91 95 93 88 82 77 68 66 88 80 74 69 64 68 68 73 72 71 70 71 68
56 71 89 90 89 83 67 57 60 59 83 78 75 77 75 75 83 78 70 63 46 37
78 80 71 82 86 80 66 54 57 62 66 78 82 84 80 67 52 43 47 34 27 15
86 89 72 70 74 66 68 64 62 63 70 80 80 57 30 33 21 25 23 30 25 27
73 76 83 82 70 58 62 77 67 77 88 63 30 28 19 24 22 24 28 33 20 15
48 68 79 73 71 73 71 45 20 49 54 30 25 25 17 26 27 34 30 25 20 13
32 43 56 66 69 73 71 45 34 38 39 26 30 25 30 26 45 38 30 25 25 22
25 33 41 52 59 65 55 52 71 61 62 51 56 47 54 48 50 37 35 31 25 20
23 24 36 38 52 59 69 80 81 75 73 74 64 62 48 41 41 39 32 27 22 15
22 26 30 35 41 52 65 74 75 74 70 64 56 48 46 37 35 31 25 23 19 18
19 23 29 34 41 50 60 49 49 58 54 55 61 41 42 31 30 27 26 27 25 19
13 19 25 29 35 41 45 50 51 55 59 44 51 36 28 29 34 30 25 23 20 17
19 25 30 39 51 57 56 58 51 46 39 36 34 33 30 29 27 29 27 25 18 14
38 48 57 62 63 63 60 54 45 36 34 33 34 37 33 27 22 19 18 16 11 6
Wind_Direction_850mb
242 241 242 245 248 249 248 252 249 235 235 238 240 247 246 243 244 244 245 247 248 247
254 250 249 250 250 251 249 256 247 243 232 235 239 241 245 244 248 241 238 233 209 184
260 261 268 257 253 249 247 250 248 241 235 236 238 239 241 234 205 191 181 170 172 197
243 244 255 261 261 248 248 247 241 236 235 235 230 209 170 177 192 178 201 209 218 233
230 240 239 246 243 250 251 247 242 240 232 203 155 139 163 198 209 210 219 215 193 204
236 225 232 238 236 243 251 237 281 200 150 135 121 156 132 192 216 216 209 203 181 176
255 241 232 229 239 240 231 230 241 188 216 217 260 227 202 204 200 191 176 169 167 168
248 243 247 235 224 209 219 215 206 203 198 208 199 210 201 189 184 171 166 167 169 174
267 249 233 232 227 215 200 196 198 203 200 193 188 182 176 165 157 153 162 166 161 152
261 251 243 233 221 213 199 192 190 188 184 175 160 142 141 155 151 148 153 147 144 140
253 247 237 227 214 200 199 190 175 173 155 144 130 137 137 160 151 144 151 152 138 135
228 226 217 209 200 188 174 153 146 138 139 147 132 138 150 175 148 142 149 136 126 119
182 186 175 169 155 147 146 141 137 135 132 132 137 148 153 164 145 142 148 135 144 140
146 149 145 141 137 132 127 123 120 132 140 142 144 148 148 153 129 133 152 153 144 126